Flag for Faroe Islands Weather past 2 weeks in Tórshavn, Faroe Islands, Faroe Islands

Now
32 °F

Passing clouds.


Feels Like: 32 °F
Forecast: N/A
Wind: No wind

Location: Soervaag / Vagar

Current Time: Mar 3, 2015 at 5:43:13 PM

Latest Report: Mar 3, 2015 at 5:20 PM


Visibility: N/A

Pressure: 29.36 "Hg

Humidity: 87%

Dew point: 28 °F

Location of TórshavnLocation

Historic Weather in Tórshavn — Graph

°F

Tórshavn temperature yesterday

Maximum temperature yesterday: 39 °F (at 11:20 AM)
Minimum temperature yesterday: 30 °F (at 2:20 AM)
Average temperature yesterday: 35 °F

Past Weeks' High & Low Weather Summary

 TemperatureHumidityPressure
High48 °F (Feb 18, 4:50 AM)100% (Feb 16, 10:20 PM)29.83 "Hg (Feb 16, 10:20 PM)
Low23 °F (Feb 22, 3:50 AM)51% (Feb 21, 7:50 PM)28.32 "Hg (Feb 23, 4:20 AM)
Average37 °F81%29.07 "Hg
* Reported Feb 16 4:20 PM — Mar 3 4:20 PM, Tórshavn, Weather by CustomWeather, © 2015

Note: Actual official high and low records may vary slightly from our data, if they occured in-between our weather recording intervals... More about our weather records

Advertising

Tórshavn weather history for previous 24 hours

 ConditionsComfort  
Time TempWeatherWind HumidityBarometerVisibility
4:20 PM
Tue, Mar 3
34 °FDrizzle. Broken clouds.1 mph87%29.33 "HgN/A
3:50 PM34 °FBroken clouds.No wind87%29.30 "HgN/A
3:20 PM34 °FScattered clouds.3 mph87%29.30 "HgN/A
2:50 PM34 °FPartly sunny.1 mph87%29.27 "HgN/A
2:20 PM36 °FPassing clouds.1 mph87%29.27 "HgN/A
1:50 PM36 °FChilly.2 mph81%29.24 "HgN/A
1:20 PM34 °FScattered clouds.No wind87%29.24 "HgN/A
12:50 PM34 °FPartly sunny.7 mph87%29.24 "HgN/A
12:20 PM34 °FSprinkles. Partly sunny.10 mph87%29.24 "HgN/A
11:50 AM34 °FLight rain. Partly sunny.17 mph93%29.24 "Hg4 mi
11:20 AM34 °FPartly sunny.7 mph87%29.21 "HgN/A
10:50 AM34 °FPartly sunny.7 mph81%29.21 "HgN/A
10:20 AM36 °FSprinkles. Partly sunny.8 mph75%29.21 "HgN/A
9:50 AM34 °FBroken clouds.8 mph81%29.21 "HgN/A
9:20 AM32 °FSprinkles. Partly sunny.2 mph93%29.18 "HgN/A
8:50 AM34 °FSprinkles. Partly sunny.12 mph93%29.18 "Hg1 mi
8:20 AM36 °FSnow flurries. Partly sunny.10 mph81%29.18 "HgN/A
7:50 AM34 °FSnow flurries. Partly sunny.9 mph87%29.15 "HgN/A
7:20 AM34 °FPassing clouds.No wind87%29.15 "HgN/A
6:50 AM34 °FLight freezing rain. Partly cloudy.7 mph93%29.15 "Hg2 mi
6:20 AM32 °FSnow flurries. Passing clouds.8 mph100%29.15 "Hg4 mi
5:50 AM32 °FPassing clouds.2 mph93%29.15 "HgN/A
5:20 AM30 °FSnow flurries. Passing clouds.1 mph100%29.15 "HgN/A
4:50 AM30 °FSnow flurries. Passing clouds.2 mph93%29.15 "HgN/A
4:20 AM30 °FLight snow. Passing clouds.1 mph100%29.15 "Hg2 mi
3:50 AM28 °FPassing clouds.2 mph93%29.15 "HgN/A
3:20 AM28 °FPassing clouds.1 mph93%29.15 "HgN/A
2:50 AM32 °FSnow flurries. Passing clouds.7 mph93%29.15 "Hg3 mi
2:20 AM36 °FSnow flurries. Overcast.10 mph75%29.15 "Hg1 mi
1:50 AM34 °FSnow flurries. Passing clouds.9 mph87%29.15 "HgN/A
1:20 AM34 °FSnow flurries. Mostly cloudy.16 mph81%29.15 "Hg1 mi
12:50 AM34 °FSprinkles. Partly cloudy.7 mph87%29.12 "HgN/A
12:20 AM34 °FPartly cloudy.8 mph87%29.12 "HgN/A
11:50 PM
Mon, Mar 2
34 °FSprinkles. Passing clouds.6 mph81%29.12 "HgN/A
11:20 PM36 °FSprinkles. Passing clouds.6 mph75%29.12 "HgN/A
10:50 PM36 °FPartly cloudy.9 mph70%29.12 "HgN/A
10:20 PM36 °FSprinkles. Overcast.13 mph75%29.12 "HgN/A
9:50 PM37 °FPassing clouds.14 mph65%29.09 "HgN/A
9:20 PM36 °FPassing clouds.9 mph75%29.09 "HgN/A
8:50 PM36 °FPassing clouds.8 mph70%29.09 "HgN/A
8:20 PM37 °FPartly cloudy.12 mph65%29.06 "HgN/A
7:50 PM36 °FOvercast.9 mph70%29.06 "HgN/A
7:20 PM36 °FPassing clouds.16 mph75%29.06 "HgN/A
6:50 PM36 °FPassing clouds.22 mph81%29.06 "HgN/A
6:20 PM37 °FSprinkles. Passing clouds.15 mph70%29.03 "HgN/A
5:50 PM37 °FPassing clouds.17 mph65%29.03 "HgN/A
5:20 PM37 °FSleet. Partly sunny.16 mph65%29.00 "HgN/A
Weather by CustomWeather, © 2015

See weather overviewHow to use our weather pages